INTELSAT 701 (IS-701)

Last updated on Jan. 5, 2019, 2:57 a.m. UTC

1 22871U 93066A   19004.14553951 -.00000040  00000-0  00000+0 0  9995
2 22871   5.2722  64.3734 0003008 254.1080 285.8615  0.99318017 92013
UTC
Height (km)
Latitude
Longitude
Inclination
Orbital Period
UTC large
Height (km)
Speed (km/s)
/
Latitude / Longitude
Inclination (degrees)
Orbital Period (minutes)
Azimuth
Elevation
Range (km)
Doppler Factor
iOS Compass Heading
iOS Angle

Next 30 passes for location: Hong Kong

Rise time Rise Azimuth (degrees) Set time Set Azimuth (degrees) Duration Max altitude (degrees)

No matching passes for this satellites